[[{"header":{"parameterUnit":"m.s-1","parameterCategory":1,"la1":30.2991,"la2":30.254,"lo1":-89.0895,"lo2":-89.0444,"dy":0.0017,"dx":0.0017,"nx":28,"ny":28,"refTime":"2023-09-24T03:00:00:Z","depth":0,"parameterNumber":2,"parameterNumberName":"U-component_of_WINDS"},"data":[0,0,0,0,0,0,0,0,0,0,0,0,0,0,0,0,0,0,0,0,0,0,0,0,0,0,0,0,0,0,0,0,0,0,0,0,0,0,0,0,0,0,0,0,0,0,0,0,0,0,0,0,0,0,0,0,0,0,1.4068,1.4068,0,1.4074,1.4074,1.4074,1.405,1.4049,1.4049,1.4048,1.4053,1.4054,1.4054,0,0,0,0,0,0,0,0,0,0,0,0,0,1.4031,1.4032,1.4068,1.4068,1.4068,1.4074,1.4074,1.4074,1.405,1.4049,1.4048,1.4048,1.4053,1.4054,1.4055,0,0,0,0,0,0,0,0,0,0,0,0,0,1.4043,1.4032,1.4068,1.4057,1.4056,1.4074,1.4074,1.4074,1.405,1.4049,1.4048,1.4047,1.4052,1.4054,1.4055,1.4083,0,0,1.4058,1.4059,0,0,0,0,0,0,0,0,1.4043,1.4045,1.4058,1.4057,1.4056,1.406,1.4063,1.4077,1.4051,1.4052,1.4048,1.4047,1.4056,1.4057,1.406,1.4083,1.4084,1.4058,1.4059,1.406,1.406,0,0,0,0,0,0,0,1.4042,1.4044,1.407,1.4058,1.4057,1.405,1.4051,1.4065,1.406,1.4052,1.405,1.4052,1.4055,1.4059,1.406,1.4084,1.4058,1.4059,1.406,1.4061,1.4126,1.4127,0,0,0,0,0,0,1.4043,1.4044,1.407,1.407,1.4047,1.4052,1.4052,1.406,1.406,1.4059,1.4052,1.405,1.4058,1.4059,1.406,1.4091,1.406,1.4061,1.4061,1.4125,1.4127,1.4128,0,0,0,0,0,0,1.4042,1.4045,1.407,1.4056,1.4059,1.4053,1.4062,1.4061,1.4065,1.406,1.4059,1.4058,1.4057,1.4059,1.4077,1.4091,1.4061,1.4062,1.4124,1.4126,1.4127,1.4155,0,0,0,0,0,0,1.4041,1.4045,1.4057,1.4057,1.406,1.4087,1.4063,1.4062,1.4067,1.4064,1.4065,1.4064,1.4056,1.4075,1.4078,1.4092,1.4063,1.4123,1.4125,1.4127,1.4152,1.4157,1.4161,0,0,0,0,0,1.404,1.4065,1.4058,1.4061,1.4075,1.4088,1.409,1.4081,1.4068,1.4079,1.4076,1.4064,1.4089,1.4077,1.408,1.4095,1.4122,1.4124,1.4127,1.415,1.4156,1.4161,0,0,0,0,0,0,1.4067,1.4065,1.4057,1.4083,1.4086,1.4084,1.4098,1.4088,1.4094,1.4092,1.408,1.408,1.41,1.4099,1.4086,1.4121,1.4103,1.4106,1.412,1.4125,1.4129,1.4128,1.4064,0,0,0,0,0,1.4076,1.4088,1.4085,1.4108,1.411,1.4104,1.411,1.4102,1.4105,1.4106,1.4104,1.4106,1.4114,1.412,1.4128,1.4152,1.415,1.4163,1.4168,1.4171,1.4173,1.4183,1.4188,1.4136,1.4136,1.4135,0,0,1.4095,1.4095,1.4104,1.4114,1.4115,1.4126,1.4105,1.4119,1.4126,1.4108,1.4124,1.4123,1.4124,1.4145,1.4154,1.4145,1.4187,1.4174,1.4177,1.4177,1.4186,1.4191,1.4195,1.4137,1.4137,1.4137,0,0,1.4135,1.4137,1.4155,1.4157,1.4159,1.4154,1.4158,1.4157,1.4155,1.4172,1.4157,1.4166,1.4181,1.4182,1.4184,1.422,1.4209,1.4223,1.4245,1.4254,1.4258,1.4262,1.4272,1.4277,1.4226,1.4226,1.4226,0,1.4158,1.4175,1.4166,1.4179,1.4183,1.4166,1.4183,1.4185,1.4189,1.4191,1.4182,1.4198,1.4198,1.4217,1.4226,1.4229,1.4232,1.4223,1.4259,1.4262,1.4265,1.4275,1.4279,1.4228,1.4227,1.4227,1.4227,0,1.4201,1.4213,1.4227,1.4231,1.4237,1.4252,1.4243,1.4249,1.4241,1.4237,1.4252,1.4251,1.4257,1.4261,1.4254,1.4278,1.4272,1.4261,1.4243,1.4272,1.4281,1.4285,1.423,1.4229,1.4229,1.4228,0,0,1.426,1.4256,1.4261,1.4261,1.4261,1.427,1.4283,1.4288,1.4293,1.4296,1.4305,1.4317,1.4305,1.4308,1.43,1.4309,1.4334,1.4296,1.4296,1.4301,1.4358,1.4365,1.437,1.4327,1.4328,1.4328,1.4357,0,1.4296,1.4319,1.431,1.4333,1.4342,1.4325,1.4336,1.4336,1.4332,1.4338,1.4333,1.4341,1.4326,1.4327,1.4335,1.433,1.4345,1.4328,1.4333,1.4334,1.4332,1.4375,1.4384,1.4411,1.4361,1.4361,1.4362,0,1.4343,1.4346,1.437,1.4366,1.4369,1.4379,1.4382,1.4388,1.4387,1.4383,1.4385,1.4374,1.4385,1.4368,1.4381,1.4369,1.4371,1.4368,1.4369,1.4368,1.4349,1.4373,1.442,1.4423,1.4368,1.4367,1.4367,0,1.4379,1.439,1.4405,1.4406,1.4402,1.4409,1.4407,1.4405,1.4408,1.441,1.4411,1.4415,1.4416,1.4418,1.4408,1.4397,1.4421,1.4404,1.4416,1.4417,1.4422,1.4421,1.4467,1.4426,1.4426,1.4426,1.4425,0,1.442,1.4435,1.4421,1.443,1.4445,1.4433,1.4448,1.4445,1.4442,1.4449,1.4435,1.4441,1.4428,1.4433,1.4425,1.4435,1.4437,1.4432,1.443,1.4433,1.4433,1.4433,1.443,1.4427,1.4426,1.4426,1.4426,0,1.4463,1.4455,1.447,1.4464,1.4462,1.4473,1.4468,1.4475,1.4469,1.4477,1.4478,1.4469,1.4473,1.4463,1.4467,1.4461,1.4475,1.4471,1.4475,1.4473,1.4486,1.4484,1.4531,1.4536,1.4494,1.4494,1.4494,0,1.4489,1.45,1.4494,1.4498,1.4497,1.4503,1.4505,1.4493,1.4496,1.4494,1.4501,1.4504,1.4505,1.4513,1.4505,1.4507,1.4501,1.4517,1.4501,1.4502,1.4498,1.4497,1.4497,1.452,1.4521,1.4521,1.4522,0,1.4535,1.453,1.4534,1.4536,1.4539,1.454,1.454,1.4543,1.453,1.4533,1.4537,1.4539,1.4541,1.4543,1.4543,1.454,1.4528,1.4527,1.4529,1.4532,1.4533,1.453,1.4483,1.4526,1.4525,1.4525,1.4525,1.4525,1.4569,1.4576,1.4573,1.4577,1.4575,1.4575,1.458,1.4574,1.4578,1.4578,1.4571,1.4576,1.4572,1.457,1.4568,1.457,1.4562,1.4567,1.4568,1.4568,1.4569,1.4534,1.457,1.457,1.457,1.457,1.457,0,1.4612,1.4608,1.4612,1.4612,1.4614,1.4603,1.4602,1.4604,1.4609,1.4606,1.4608,1.4611,1.4612,1.4604,1.4604,1.4608,1.4602,1.4608,1.4607,1.4606,1.4578,1.4574,1.4612,1.4612,1.4612,1.4612,1.4612,1.4612,1.4635,1.4645,1.4639,1.4648,1.4645,1.4649,1.4649,1.4647,1.4645,1.4649,1.465,1.4645,1.4639,1.4638,1.4638,1.4636,1.4636,1.4643,1.4638,1.4612,1.4608,1.4604,1.4601,1.4644,1.4644,1.4666,1.4666,1.4666]},{"header":{"parameterUnit":"m.s-1","parameterCategory":1,"la1":30.2991,"la2":30.254,"lo1":-89.0895,"lo2":-89.0444,"dy":0.0017,"dx":0.0017,"nx":28,"ny":28,"refTime":"2023-09-24T03:00:00:Z","depth":0,"parameterNumber":3,"parameterNumberName":"V-component_of_WINDS"},"data":[0,0,0,0,0,0,0,0,0,0,0,0,0,0,0,0,0,0,0,0,0,0,0,0,0,0,0,0,0,0,0,0,0,0,0,0,0,0,0,0,0,0,0,0,0,0,0,0,0,0,0,0,0,0,0,0,0,0,4.1501,4.1502,0,4.1573,4.1573,4.1574,4.1524,4.1521,4.1519,4.1517,4.1585,4.1589,4.1593,0,0,0,0,0,0,0,0,0,0,0,0,0,4.1314,4.1318,4.1501,4.1502,4.1503,4.1572,4.1573,4.1574,4.1524,4.1521,4.1518,4.1516,4.1584,4.1589,4.1594,0,0,0,0,0,0,0,0,0,0,0,0,0,4.1391,4.1319,4.1501,4.1486,4.1486,4.1572,4.1573,4.1575,4.1525,4.1521,4.1518,4.1515,4.1583,4.1588,4.1594,4.1698,0,0,4.1612,4.1615,0,0,0,0,0,0,0,0,4.1387,4.1398,4.1487,4.1487,4.1487,4.1536,4.1533,4.1616,4.1525,4.151,4.1517,4.1513,4.1571,4.1578,4.1599,4.1701,4.1704,4.1613,4.1616,4.1619,4.162,0,0,0,0,0,0,0,4.1382,4.1395,4.1529,4.1489,4.1488,4.1474,4.1481,4.1548,4.1558,4.1511,4.1507,4.1517,4.157,4.1593,4.16,4.1705,4.1612,4.1618,4.1621,4.1624,4.1892,4.1896,0,0,0,0,0,0,4.1379,4.1391,4.1527,4.1531,4.1428,4.148,4.1488,4.1523,4.1558,4.156,4.1519,4.1514,4.1585,4.1593,4.1602,4.1723,4.1619,4.1624,4.1628,4.1889,4.1893,4.1897,0,0,0,0,0,0,4.1375,4.1391,4.1524,4.146,4.1476,4.1487,4.1527,4.1527,4.1549,4.1564,4.1565,4.1541,4.1582,4.1594,4.1674,4.1725,4.1627,4.1632,4.1884,4.189,4.1895,4.1968,0,0,0,0,0,0,4.137,4.139,4.1432,4.1462,4.148,4.1597,4.153,4.153,4.156,4.1554,4.1585,4.1587,4.1581,4.1665,4.168,4.1731,4.1637,4.188,4.1887,4.1893,4.1961,4.1975,4.1988,0,0,0,0,0,4.1363,4.1449,4.1434,4.1451,4.1532,4.16,4.161,4.1603,4.1564,4.1605,4.1614,4.1586,4.1717,4.1674,4.169,4.1744,4.1877,4.1885,4.1893,4.1955,4.1973,4.1987,0,0,0,0,0,0,4.1424,4.1453,4.1436,4.1535,4.1566,4.1591,4.1642,4.1622,4.1663,4.1655,4.1643,4.165,4.1734,4.1747,4.1698,4.1844,4.179,4.1802,4.1833,4.1849,4.1862,4.1857,4.1642,0,0,0,0,0,4.1449,4.1504,4.1525,4.161,4.1626,4.1632,4.1661,4.1653,4.1683,4.1696,4.1711,4.174,4.1788,4.1819,4.1864,4.1963,4.1967,4.2008,4.2021,4.2032,4.2041,4.2091,4.2109,4.1924,4.1924,4.1923,0,0,4.15,4.1523,4.1558,4.1623,4.1645,4.17,4.1643,4.1704,4.1744,4.1704,4.1781,4.1793,4.1824,4.1914,4.1954,4.1927,4.2093,4.2042,4.2051,4.2054,4.2102,4.2119,4.2135,4.1929,4.1928,4.1927,0,0,4.1622,4.1647,4.1718,4.1742,4.1777,4.178,4.1797,4.1826,4.1833,4.191,4.188,4.1926,4.201,4.2033,4.2055,4.2183,4.2158,4.2198,4.2266,4.2315,4.233,4.2343,4.2386,4.2402,4.2208,4.2208,4.2208,0,4.1682,4.1765,4.1757,4.182,4.1848,4.1816,4.1886,4.1909,4.1957,4.1976,4.1946,4.2048,4.2067,4.216,4.2191,4.2211,4.2228,4.2194,4.2329,4.2342,4.2353,4.2394,4.2411,4.2213,4.2212,4.2212,4.2211,0,4.1835,4.1893,4.1946,4.1994,4.2028,4.2094,4.2094,4.2129,4.2117,4.2122,4.2198,4.222,4.2268,4.2289,4.2278,4.238,4.2362,4.2331,4.2276,4.2376,4.2414,4.243,4.2219,4.2218,4.2216,4.2215,0,0,4.1998,4.2039,4.2059,4.2078,4.2114,4.2158,4.2221,4.2269,4.2297,4.2331,4.2382,4.2452,4.2423,4.2448,4.2439,4.2483,4.2579,4.2446,4.2446,4.2468,4.2689,4.2711,4.2729,4.2563,4.2566,4.2569,4.2685,0,4.212,4.2233,4.2226,4.2331,4.2382,4.2352,4.2406,4.2433,4.2439,4.2482,4.2487,4.2536,4.2495,4.251,4.2552,4.2559,4.2623,4.2551,4.2608,4.261,4.26,4.275,4.2774,4.2883,4.2701,4.2703,4.2705,0,4.2278,4.2317,4.2427,4.2453,4.2474,4.2524,4.2565,4.2607,4.2635,4.2636,4.2664,4.2647,4.2708,4.2654,4.2736,4.2687,4.271,4.2717,4.2721,4.2724,4.2663,4.2756,4.2918,4.2934,4.2729,4.2727,4.2725,0,4.2383,4.2463,4.2538,4.2557,4.2589,4.2624,4.2639,4.2664,4.2692,4.2727,4.2744,4.2787,4.2809,4.2841,4.2835,4.2796,4.2918,4.2863,4.2918,4.2919,4.2945,4.2943,4.3111,4.2963,4.2962,4.2962,4.2962,0,4.2519,4.2587,4.2586,4.2632,4.2706,4.2697,4.2769,4.278,4.2802,4.2847,4.2823,4.2866,4.2857,4.2899,4.2894,4.2962,4.2973,4.2973,4.2971,4.2974,4.2974,4.2988,4.298,4.2967,4.2966,4.2965,4.2964,0,4.2648,4.2651,4.273,4.2754,4.2761,4.2815,4.2833,4.2876,4.2879,4.2937,4.295,4.2955,4.3003,4.3,4.3055,4.3051,4.3134,4.3124,4.3125,4.3122,4.3176,4.3171,4.3359,4.3382,4.322,4.3221,4.3223,0,4.2734,4.2786,4.2815,4.2844,4.2861,4.2909,4.2937,4.2929,4.2959,4.2994,4.3031,4.3077,4.3113,4.3191,4.3198,4.3239,4.3228,4.3291,4.3234,4.3235,4.3226,4.3222,4.3226,4.3301,4.3303,4.3305,4.3306,0,4.2886,4.2884,4.2927,4.2969,4.3003,4.3036,4.3066,4.3091,4.3085,4.312,4.3169,4.3197,4.3252,4.3297,4.3336,4.3348,4.3325,4.3324,4.3339,4.3342,4.334,4.3339,4.3153,4.332,4.3318,4.3317,4.3316,4.3316,4.2995,4.3038,4.3064,4.3112,4.3133,4.3161,4.3201,4.321,4.3251,4.3296,4.3288,4.3342,4.3366,4.3415,4.3431,4.3472,4.3449,4.3471,4.3476,4.3481,4.3486,4.3335,4.3479,4.3479,4.3479,4.3478,4.3478,0,4.3143,4.3158,4.3202,4.3244,4.3281,4.3258,4.3289,4.332,4.3369,4.3393,4.3429,4.3484,4.3527,4.3537,4.3578,4.3608,4.3599,4.3619,4.3616,4.3618,4.3506,4.3488,4.3626,4.3626,4.3626,4.3626,4.3626,4.3626,4.3225,4.3296,4.3296,4.3376,4.339,4.3444,4.3464,4.3488,4.3508,4.3571,4.3606,4.3613,4.3631,4.3672,4.3709,4.3711,4.3726,4.375,4.3747,4.3641,4.3627,4.3612,4.3596,4.3754,4.3754,4.3856,4.3857,4.3858]}]]